Weather in Girona

Spain     41°58′57″N   2°49′07″E
temp.,
°C
wind,
m/s
gust,
m/s
humid.,
%
clouds,
%
prec.,
mm/h
press.,
hPa
HPBL,
m
2 december, thu
thu201:00+7w2394100 6.4 1008139
04:00+6w2394100 3.3 1006134
07:00+6wnw239298 4.9 1006112
10:00+8nw1284100 0.0 1007156
13:00+11ne12644 0.0 1006847
16:00+10ese22712 0.4 1006270
19:00+5nnw248630 0.9 1010145
22:00+3nnw23770 0.1 101176
3 december, fri
fri301:00+1nw23795 0.1 101270
04:00+1w22730 0.0 101234
07:00+1nw22710 0.0 101422
10:00+5nw115916 0.0 1016124
13:00+9e1145100 0.0 1016544
16:00+8e11475 0.0 1017246
19:00+4w216212 0.0 101911
22:00+4wsw226345 0.0 102022
4 december, sat
sat401:00+5wsw225495 0.0 101824
04:00+5w215892 0.0 101717
07:00+4wnw22665 0.0 101626
10:00+8w22580 0.0 1014105
13:00+14wnw1143100 0.0 1013416
16:00+12s115832 0.0 101235
19:00+9n2369100 0.0 101577
22:00+8wnw259594 3.9 1014238
5 december, sun
sun501:00+6sw129699 6.5 101356
04:00+6wnw229386 1.0 101431
07:00+6n2395100 2.4 1014198
10:00+6nw118650 1.1 1014237
13:00+7nne118287 1.9 1013361
16:00+8nne238291 1.3 1011419
19:00+5wnw23925 2.8 1012136
22:00+3wnw22890 0.0 101454
6 december, mon
mon601:00+2wnw228270 0.0 101425
04:00+1wnw228052 0.0 101534
07:00+1nw23840 0.0 101651
10:00+5wnw23770 0.0 1017115
13:00+11n311370 0.0 10162150
16:00+10n513280 0.0 10161670
19:00+5nnw39510 0.0 1020449
22:00+2w23570 0.0 102154